Weather History for VDSR - December, 2013

Change the Weather History Date:

Monday, December 23, 2013

  Actual Average Record
Temperature  
Mean Temperature 73 °F -  
Max Temperature 80 °F - - ()
Min Temperature 66 °F - - ()
Cooling Degree Days 8    
Growing Degree Days 23 (Base 50)    
Moisture  
Dew Point 63 °F    
Average Humidity 73    
Maximum Humidity 88    
Minimum Humidity 54    
Precipitation  
Precipitation 0.00 in - - ()
Sea Level Pressure  
Sea Level Pressure 29.96 in    
Wind  
Wind Speed 3 mph ()    
Max Wind Speed 5 mph    
Max Gust Speed -    
Visibility 5.3 miles    
Events      
T = Trace of Precipitation, MM = Missing Value Source: Averaged Metar Reports

Daily Weather History Graph

Daily Weather History Graph

Search for Another Location

Airport or City:

Trip Planner

Search our weather history database for the weather conditions in past years. The results will help you decide how hot, cold, wet, or windy it might be!

Date:

Astronomy

Dec. 23, 2013 Rise Set
Actual Time 6:23 AM ICT 5:43 PM ICT
Civil Twilight 6:00 AM ICT 6:06 PM ICT
Nautical Twilight 5:33 AM ICT 6:33 PM ICT
Astronomical Twilight 5:07 AM ICT 7:00 PM ICT
Moon 10:32 PM ICT (12/23) 10:19 AM ICT (12/23)
Length of Visible Light 12h 06m
Length of Day
11h 20m
Waning Gibbous, 72% of the Moon is Illuminated
Dec 23
Waning Gibbous
Dec 25
Last Quarter
Jan 1
New
Jan 8
First Quarter
Jan 16
Full

Hourly Weather History & Observations

Time (ICT) Temp. Heat Index Dew Point Humidity Pressure Visibility Wind Dir Wind Speed Gust Speed Precip Events Conditions
12:00 AM 68.0 °F - 60.8 °F 78% 29.95 in 5.6 mi NW 4.6 mph - N/A   Scattered Clouds
12:30 AM 68.0 °F - 60.8 °F 78% 29.95 in 5.6 mi Variable 2.3 mph - N/A   Scattered Clouds
1:00 AM 66.2 °F - 60.8 °F 83% 29.92 in 5.0 mi Variable 2.3 mph - N/A   Scattered Clouds
7:00 AM - - - %  in - Calm Calm - -  
7:00 AM 66.2 °F - 62.6 °F 88% 29.98 in 5.0 mi North 2.3 mph - N/A   Mostly Cloudy
7:30 AM 66.2 °F - 62.6 °F 88% 29.98 in 5.0 mi North 2.3 mph - N/A   Mostly Cloudy
8:00 AM 66.2 °F - 62.6 °F 88% 30.01 in 5.0 mi NNE 3.5 mph - N/A   Mostly Cloudy
8:30 AM 68.0 °F - 62.6 °F 83% 30.01 in 5.0 mi NNW 2.3 mph - N/A   Mostly Cloudy
9:00 AM 68.0 °F - 62.6 °F 83% 30.04 in 5.0 mi NNW 1.2 mph - N/A   Mostly Cloudy
9:30 AM 68.0 °F - 62.6 °F 83% 30.04 in 5.0 mi Variable 2.3 mph - N/A   Mostly Cloudy
10:00 AM 69.8 °F - 62.6 °F 78% 30.04 in 5.0 mi Variable 1.2 mph - N/A   Mostly Cloudy
10:30 AM 69.8 °F - 62.6 °F 78% 30.04 in 5.0 mi Variable 2.3 mph - N/A   Mostly Cloudy
11:00 AM 71.6 °F - 62.6 °F 73% 30.01 in 5.0 mi Variable 2.3 mph - N/A   Mostly Cloudy
11:30 AM 71.6 °F - 62.6 °F 73% 30.01 in 5.0 mi Variable 3.5 mph - N/A   Mostly Cloudy
12:00 PM 73.4 °F - 62.6 °F 69% 29.98 in 5.6 mi Variable 2.3 mph - N/A   Mostly Cloudy
1:30 PM 77.0 °F - 62.6 °F 61% 29.92 in 5.6 mi Variable 2.3 mph - N/A   Mostly Cloudy
2:00 PM 78.8 °F - 62.6 °F 57% 29.92 in 5.6 mi Variable 2.3 mph - N/A   Mostly Cloudy
2:30 PM 78.8 °F - 62.6 °F 57% 29.89 in 5.6 mi Variable 3.5 mph - N/A   Mostly Cloudy
3:00 PM 80.6 °F 81.8 °F 62.6 °F 54% 29.89 in 5.6 mi Variable 1.2 mph - N/A   Mostly Cloudy
3:30 PM 78.8 °F - 62.6 °F 57% 29.89 in 5.6 mi Variable 3.5 mph - N/A   Mostly Cloudy
4:30 PM 80.6 °F 81.8 °F 62.6 °F 54% 29.89 in 5.6 mi Variable 3.5 mph - N/A   Partly Cloudy
5:00 PM 78.8 °F - 62.6 °F 57% 29.89 in 5.6 mi NW 4.6 mph - N/A   Partly Cloudy
5:30 PM 78.8 °F - 64.4 °F 61% 29.92 in 5.6 mi North 3.5 mph - N/A   Partly Cloudy
6:30 PM 75.2 °F - 64.4 °F 69% 29.92 in 5.6 mi NNW 4.6 mph - N/A   Unknown
7:00 PM 75.2 °F - 64.4 °F 69% 29.95 in 5.6 mi NNW 3.5 mph - N/A   Unknown
7:30 PM 73.4 °F - 64.4 °F 73% 29.95 in 5.6 mi NNW 3.5 mph - N/A   Unknown
8:00 PM 73.4 °F - 66.2 °F 78% 29.95 in 5.6 mi NW 3.5 mph - N/A   Unknown
8:30 PM 73.4 °F - 66.2 °F 78% 29.95 in 5.6 mi North 3.5 mph - N/A   Unknown
9:00 PM 73.4 °F - 64.4 °F 73% 29.98 in 5.6 mi North 3.5 mph - N/A   Unknown
9:30 PM 71.6 °F - 64.4 °F 78% 29.98 in 5.0 mi North 3.5 mph - N/A   Unknown
10:00 PM 71.6 °F - 64.4 °F 78% 29.98 in 5.0 mi North 3.5 mph - N/A   Unknown
10:30 PM 71.6 °F - 64.4 °F 78% 29.98 in 5.0 mi Calm Calm - N/A   Unknown
11:00 PM 71.6 °F - 64.4 °F 78% 29.98 in 5.0 mi Calm Calm - N/A   Unknown
11:30 PM 71.6 °F - 64.4 °F 78% 29.98 in 5.0 mi Calm Calm - N/A   Unknown